Total_Precipitation_Accumulation
0.02 0.08 0.28 0.54 1.00 1.43 1.21 0.60 0.41 0.29 0.29 0.40 0.39 0.30 0.32 0.41 0.55 0.88 0.40 0.28 0.13 0.05 0.03 0.08 0.12 0.09 0.10 0.13 0.14 0.16 0.14 0.14 0.13 0.12 0.10 0.09 0.09 0.10 0.09 0.10 0.13 0.15 0.17 0.19 0.20 0.18 0.17 0.16 0.15
0.04 0.13 0.35 0.73 1.35 1.69 1.05 0.46 0.32 0.27 0.34 0.42 0.34 0.27 0.30 0.28 0.25 0.20 0.19 0.29 0.13 0.05 0.03 0.03 0.09 0.09 0.08 0.11 0.12 0.15 0.15 0.16 0.16 0.14 0.12 0.12 0.12 0.14 0.16 0.16 0.15 0.16 0.18 0.17 0.17 0.16 0.14 0.13 0.14
0.06 0.15 0.41 0.75 1.04 1.14 0.58 0.27 0.23 0.25 0.38 0.41 0.32 0.29 0.31 0.34 0.31 0.23 0.16 0.17 0.12 0.05 0.04 0.04 0.06 0.08 0.08 0.09 0.12 0.13 0.14 0.16 0.18 0.16 0.13 0.14 0.16 0.19 0.20 0.20 0.18 0.20 0.19 0.17 0.18 0.15 0.15 0.14 0.15
0.10 0.22 0.42 0.60 0.70 0.59 0.34 0.21 0.21 0.25 0.37 0.33 0.28 0.38 0.41 0.45 0.28 0.22 0.19 0.14 0.11 0.07 0.06 0.06 0.08 0.08 0.08 0.09 0.11 0.13 0.16 0.17 0.17 0.14 0.15 0.15 0.19 0.21 0.21 0.20 0.20 0.20 0.17 0.17 0.16 0.15 0.16 0.16 0.18
0.12 0.28 0.49 0.60 0.51 0.35 0.25 0.22 0.23 0.24 0.23 0.31 0.35 0.53 0.54 0.47 0.30 0.37 0.37 0.23 0.11 0.10 0.10 0.11 0.11 0.10 0.11 0.11 0.12 0.14 0.15 0.16 0.17 0.15 0.16 0.17 0.21 0.21 0.20 0.19 0.20 0.19 0.16 0.17 0.18 0.19 0.16 0.18 0.21
0.13 0.27 0.38 0.41 0.31 0.21 0.23 0.22 0.20 0.20 0.26 0.36 0.46 0.48 0.57 0.48 0.41 0.59 0.54 0.39 0.21 0.15 0.18 0.19 0.19 0.18 0.15 0.14 0.13 0.15 0.17 0.17 0.18 0.19 0.19 0.19 0.22 0.23 0.22 0.21 0.21 0.20 0.17 0.17 0.20 0.22 0.21 0.21 0.24
0.12 0.20 0.25 0.21 0.18 0.17 0.18 0.17 0.18 0.20 0.33 0.42 0.48 0.58 0.73 0.76 0.60 0.59 0.66 0.64 0.39 0.38 0.47 0.39 0.27 0.23 0.23 0.22 0.21 0.20 0.22 0.24 0.23 0.23 0.21 0.22 0.23 0.24 0.25 0.27 0.27 0.26 0.24 0.24 0.22 0.20 0.24 0.26 0.29
0.06 0.11 0.12 0.10 0.09 0.12 0.11 0.14 0.17 0.20 0.28 0.44 0.55 0.71 0.99 0.91 0.76 0.73 0.80 0.93 0.67 0.56 0.57 0.52 0.38 0.33 0.26 0.22 0.25 0.27 0.28 0.29 0.27 0.25 0.26 0.26 0.25 0.27 0.32 0.32 0.39 0.39 0.40 0.43 0.40 0.31 0.31 0.37 0.40
0.04 0.09 0.08 0.05 0.05 0.07 0.07 0.10 0.14 0.19 0.27 0.35 0.57 0.76 0.79 0.72 0.89 0.94 1.09 1.28 1.22 0.99 0.86 0.74 0.48 0.38 0.35 0.30 0.28 0.35 0.36 0.35 0.35 0.37 0.36 0.42 0.50 0.56 0.70 0.63 0.73 0.69 0.71 0.71 0.69 0.63 0.62 0.66 0.55
0.03 0.05 0.05 0.03 0.03 0.05 0.05 0.08 0.13 0.29 0.45 0.71 0.96 0.93 0.73 0.73 1.04 1.23 1.40 1.64 1.66 1.50 1.31 1.06 0.77 0.60 0.53 0.44 0.46 0.51 0.51 0.61 0.61 0.76 0.82 0.99 1.18 1.15 0.90 1.02 1.24 1.29 1.28 1.22 1.22 1.34 1.20 1.02 0.88
0.02 0.02 0.02 0.03 0.03 0.03 0.04 0.07 0.10 0.22 0.65 1.15 1.39 1.32 1.13 1.00 1.24 1.59 1.90 2.19 1.97 1.68 1.51 1.37 1.15 0.92 0.73 0.72 0.70 0.77 0.89 1.18 1.07 1.01 1.14 1.46 1.36 1.13 1.02 1.16 1.45 1.73 1.73 1.65 1.76 1.91 1.56 1.63 1.80
0.00 0.01 0.01 0.01 0.02 0.02 0.03 0.05 0.14 0.24 0.64 0.91 1.14 1.25 1.29 1.29 1.37 1.59 1.90 2.17 2.37 2.25 2.00 1.78 1.62 1.39 1.29 1.19 1.06 0.96 1.01 1.14 1.13 1.25 1.19 1.50 1.60 1.47 1.41 1.54 1.64 1.85 2.08 2.42 2.33 2.46 2.34 2.26 2.13
0.00 0.00 0.01 0.01 0.01 0.02 0.02 0.08 0.17 0.28 0.55 0.61 0.69 0.85 1.15 1.39 1.71 2.00 2.16 2.50 2.61 2.69 2.46 2.31 2.16 2.05 1.99 1.80 1.58 1.26 1.30 1.26 1.29 1.47 1.48 1.60 1.85 1.92 1.99 1.95 1.87 1.79 2.15 2.57 2.78 2.51 2.79 2.81 2.41
0.00 0.00 0.00 0.01 0.02 0.03 0.04 0.09 0.19 0.34 0.49 0.55 0.62 0.82 1.10 1.44 1.72 2.14 2.43 2.83 2.83 2.85 2.96 3.04 2.90 2.76 2.72 2.49 2.28 2.01 1.81 1.85 1.80 1.82 1.94 2.08 2.27 2.41 2.44 2.29 2.20 2.00 2.03 2.33 2.56 2.57 2.79 2.68 2.53
0.00 0.01 0.04 0.04 0.04 0.06 0.12 0.20 0.37 0.50 0.56 0.74 0.84 1.06 1.24 1.56 1.90 2.01 2.19 2.44 2.75 3.01 3.45 3.71 3.74 3.62 3.56 3.42 3.08 2.69 2.48 2.48 2.59 2.62 2.66 2.60 2.67 2.87 2.74 2.48 2.18 2.08 2.15 2.28 2.29 2.33 2.42 2.29 2.21
0.01 0.03 0.10 0.11 0.07 0.08 0.14 0.40 0.55 0.59 0.72 0.93 0.98 1.20 1.50 1.60 1.94 2.07 2.09 2.27 2.82 3.30 3.86 4.17 4.30 4.48 4.35 4.25 3.88 3.39 3.10 2.98 2.93 2.98 2.97 2.87 2.87 2.76 2.68 2.34 2.01 2.06 2.17 2.17 2.16 2.05 2.14 2.17 2.23
0.02 0.06 0.12 0.19 0.11 0.12 0.19 0.49 0.60 0.64 0.85 1.00 1.16 1.18 1.35 1.58 2.01 2.27 2.37 2.50 2.94 3.58 4.27 4.66 5.11 5.36 5.23 4.88 4.32 3.85 3.70 3.51 3.29 3.24 3.13 2.95 2.73 2.55 2.59 2.28 2.12 2.05 2.05 1.96 1.85 2.03 2.16 2.17 2.21
0.03 0.05 0.12 0.22 0.15 0.14 0.26 0.47 0.68 0.77 0.92 1.10 1.17 1.16 1.30 1.58 1.80 2.12 2.39 2.78 3.14 3.68 4.44 5.03 5.54 5.70 5.40 4.84 4.38 4.19 4.02 3.67 3.37 3.04 2.78 2.51 2.36 2.20 2.28 2.04 1.95 2.03 2.07 1.90 1.91 2.08 2.11 1.93 2.01
0.03 0.05 0.14 0.22 0.14 0.16 0.29 0.46 0.68 0.85 0.99 1.06 1.25 1.25 1.43 1.69 1.84 2.20 2.54 2.97 3.40 3.91 4.60 5.16 5.51 5.45 5.20 4.82 4.40 4.09 3.61 3.26 2.94 2.59 2.38 2.15 1.90 1.79 1.97 1.78 1.86 1.87 1.82 1.67 1.62 1.70 1.71 1.52 1.78
0.05 0.08 0.17 0.21 0.14 0.15 0.30 0.50 0.78 0.87 0.85 0.89 1.12 1.23 1.30 1.49 1.78 2.09 2.59 2.89 3.21 3.67 4.15 4.53 4.47 4.14 4.00 3.92 3.77 3.48 3.45 3.31 3.05 2.80 2.56 2.17 1.95 1.78 1.61 1.65 1.56 1.57 1.64 1.48 1.38 1.51 1.51 1.31 1.54
0.06 0.08 0.14 0.19 0.22 0.23 0.33 0.66 0.90 0.93 0.84 0.80 0.84 0.95 1.05 1.17 1.39 1.71 2.25 2.54 2.70 3.07 3.35 3.40 3.26 3.03 3.03 3.06 2.96 2.99 3.17 3.20 3.08 2.87 2.59 2.31 2.14 1.99 1.83 1.65 1.48 1.44 1.36 1.34 1.31 1.39 1.41 1.32 1.27
0.09 0.06 0.07 0.10 0.19 0.42 0.47 0.83 1.09 1.21 1.14 0.93 0.83 0.93 0.98 1.05 1.09 1.37 1.71 1.88 2.09 2.27 2.42 2.45 2.46 2.40 2.39 2.43 2.32 2.18 2.23 2.37 2.52 2.73 2.73 2.69 2.49 2.23 1.97 1.78 1.54 1.32 1.21 1.29 1.10 1.15 1.33 1.39 1.19
0.06 0.05 0.06 0.09 0.15 0.30 0.42 0.65 1.06 1.32 1.46 1.13 0.90 0.83 0.77 0.89 1.08 1.22 1.29 1.40 1.52 1.55 1.71 1.77 2.00 2.26 2.33 2.30 2.37 2.23 1.96 1.88 1.88 1.98 2.09 2.11 2.11 1.99 1.75 1.62 1.51 1.26 1.10 1.10 1.09 1.21 1.22 1.23 1.12
0.06 0.10 0.16 0.24 0.37 0.60 0.57 0.62 0.96 1.14 1.25 1.00 0.84 0.82 0.67 0.66 0.81 0.95 1.08 1.14 1.17 1.18 1.35 1.55 1.83 2.17 2.34 2.36 2.30 2.22 2.06 1.97 1.82 1.72 1.67 1.59 1.64 1.62 1.52 1.43 1.37 1.21 1.11 1.11 1.07 1.13 1.17 1.22 1.23
0.08 0.15 0.48 0.82 1.15 1.18 0.68 0.67 0.89 0.88 0.83 0.86 0.73 0.68 0.70 0.59 0.58 0.60 0.72 0.82 0.81 0.82 0.92 1.18 1.41 1.62 1.81 1.95 1.94 1.83 1.87 1.93 1.76 1.55 1.41 1.31 1.26 1.24 1.26 1.32 1.31 1.22 1.18 1.21 1.27 1.24 1.17 1.20 1.26
0.08 0.12 0.36 0.60 0.77 0.89 0.72 1.06 1.14 0.84 0.72 0.61 0.51 0.48 0.52 0.44 0.39 0.37 0.42 0.53 0.62 0.62 0.65 0.78 1.05 1.22 1.40 1.53 1.64 1.72 1.84 1.91 1.80 1.83 1.60 1.39 1.22 1.15 1.18 1.31 1.32 1.22 1.17 1.13 1.27 1.24 1.24 1.29 1.29
0.09 0.08 0.13 0.21 0.35 0.60 0.85 1.07 1.02 0.82 0.81 0.61 0.42 0.36 0.36 0.32 0.28 0.28 0.33 0.37 0.40 0.45 0.52 0.58 0.72 0.91 1.12 1.31 1.47 1.53 1.50 1.49 1.53 1.60 1.58 1.42 1.37 1.24 1.31 1.35 1.40 1.38 1.35 1.34 1.38 1.31 1.36 1.50 1.50
0.10 0.09 0.10 0.16 0.29 0.46 0.75 1.11 1.17 1.01 0.89 0.72 0.54 0.36 0.29 0.29 0.28 0.27 0.27 0.29 0.29 0.32 0.44 0.55 0.61 0.75 1.08 1.38 1.51 1.38 1.32 1.21 1.29 1.32 1.35 1.40 1.39 1.36 1.37 1.35 1.37 1.42 1.42 1.39 1.45 1.44 1.50 1.65 1.66
0.14 0.11 0.11 0.14 0.17 0.30 0.64 0.85 0.73 0.76 0.71 0.63 0.54 0.40 0.34 0.31 0.30 0.29 0.24 0.23 0.28 0.28 0.38 0.56 0.67 0.82 1.10 1.40 1.56 1.50 1.33 1.27 1.31 1.23 1.18 1.28 1.33 1.34 1.35 1.29 1.27 1.24 1.28 1.43 1.56 1.53 1.58 1.63 1.68
0.14 0.14 0.14 0.20 0.19 0.22 0.35 0.56 0.43 0.50 0.60 0.58 0.41 0.31 0.26 0.21 0.24 0.23 0.17 0.18 0.21 0.24 0.35 0.66 0.96 1.31 1.47 1.70 1.92 1.87 1.52 1.32 1.24 1.08 1.02 1.11 1.26 1.33 1.33 1.27 1.23 1.20 1.30 1.48 1.57 1.65 1.81 1.90 1.83